GSAT0213 (GALILEO 17)

Last updated on Thu Nov 21 2024 00:02:30 GMT+0000 (Coordinated Universal Time)

1 41861U 16069C 24324.70283503 .00000036 00000+0 00000+0 0 9992 2 41861 55.1652 117.0071 0001836 265.2014 94.7507 1.70474859 49720
UTC large
Height (km)
Speed (km/s)
/
Latitude / Longitude
Inclination (degrees)
Orbital Period (minutes)
Azimuth
Elevation
Range (km)
Doppler Factor

Next 0 passes for location: London (51.5072 / 0.1276)

Sorry there are no passes over London.